Weather History for KDEN - September, 2013

Change the Weather History Date:

Friday, September 13, 2013

  Actual Average Record
Temperature  
Mean Temperature 68 °F 65 °F  
Max Temperature 76 °F 80 °F 96 °F (1990)
Min Temperature 59 °F 49 °F 33 °F (1993)
Degree Days  
Heating Degree Days 0 3  
Month to date heating degree days 3 26  
Since 1 July heating degree days 3 42  
Cooling Degree Days 3 3  
Month to date cooling degree days 111 51  
Year to date cooling degree days 977 739  
Growing Degree Days 18 (Base 50)    
Moisture  
Dew Point 59 °F    
Average Humidity 77    
Maximum Humidity 100    
Minimum Humidity 54    
Precipitation  
Precipitation 0.38 in 0.03 in 0.64 in (1993)
Month to date precipitation 2.26 0.44  
Year to date precipitation 13.01 11.80  
Snow  
Snow 0.00 in - - ()
Month to date snowfall 0  
Since 1 July snowfall 0  
Since 1 September snowfall 0  
Snow Depth 0.00 in    
Sea Level Pressure  
Sea Level Pressure 29.96 in    
Wind  
Wind Speed 10 mph (SSE)    
Max Wind Speed 24 mph    
Max Gust Speed 31 mph    
Visibility 7 miles    
Events Fog , Rain    
T = Trace of Precipitation, MM = Missing Value Source: NWS Daily Summary

Daily Weather History Graph

Daily Weather History Graph

Search for Another Location

Airport or City:

Trip Planner

Search our weather history database for the weather conditions in past years. The results will help you decide how hot, cold, wet, or windy it might be!

Date:

Astronomy

Sep. 13, 2013 Rise Set
Actual Time 6:38 AM MDT 7:10 PM MDT
Civil Twilight 6:10 AM MDT 7:37 PM MDT
Nautical Twilight 5:38 AM MDT 8:09 PM MDT
Astronomical Twilight 5:05 AM MDT 8:41 PM MDT
Moon 3:01 PM MDT (9/13) 12:10 AM MDT (9/13)
Length of Visible Light 13h 26m
Length of Day
12h 32m
Waxing Gibbous, 62% of the Moon is Illuminated
Sep 13
Waxing Gibbous
Sep 19
Full
Sep 26
Last Quarter
Oct 4
New
Oct 11
First Quarter

Hourly Weather History & Observations

Time (MDT) Temp. Dew Point Humidity Pressure Visibility Wind Dir Wind Speed Gust Speed Precip Events Conditions
12:53 AM 59.0 °F 57.9 °F 96% 30.06 in 5.0 mi East 5.8 mph - 0.05 in Rain Light Rain
12:59 AM 59.0 °F 57.2 °F 94% 30.22 in 2.0 mi ENE 4.6 mph - 0.00 in Rain Light Rain
1:14 AM 59.0 °F 57.2 °F 94% 30.21 in 0.8 mi East 6.9 mph - 0.01 in Rain Light Rain
1:53 AM 59.0 °F 57.9 °F 96% 30.03 in 1.5 mi ENE 5.8 mph - 0.07 in Rain Light Rain
2:17 AM 59.0 °F 57.2 °F 94% 30.19 in 0.5 mi ENE 6.9 mph - 0.01 in Fog , Rain Light Rain
2:32 AM 59.0 °F 59.0 °F 100% 30.18 in 0.1 mi ENE 6.9 mph - 0.01 in Fog Fog
2:53 AM 59.0 °F 59.0 °F 100% 30.00 in 0.5 mi ENE 5.8 mph - 0.02 in Fog , Rain Light Rain
3:16 AM 59.0 °F 59.0 °F 100% 30.16 in 1.0 mi East 8.1 mph - 0.02 in Rain Light Rain
3:25 AM 59.0 °F 59.0 °F 100% 30.16 in 2.5 mi East 5.8 mph - 0.03 in Rain Light Rain
3:30 AM 59.0 °F 59.0 °F 100% 30.16 in 3.0 mi East 5.8 mph - 0.03 in Rain Rain
3:53 AM 59.0 °F 59.0 °F 100% 29.99 in 8.0 mi East 8.1 mph - 0.08 in Rain Light Rain
4:26 AM 60.8 °F 59.0 °F 94% 30.14 in 6.0 mi ESE 8.1 mph - 0.01 in Rain Light Rain
4:53 AM 61.0 °F 59.0 °F 93% 29.96 in 9.0 mi SE 10.4 mph - 0.02 in   Overcast
5:07 AM 60.8 °F 59.0 °F 94% 30.13 in 10.0 mi SE 9.2 mph - N/A   Overcast
5:53 AM 61.0 °F 59.0 °F 93% 29.96 in 10.0 mi SE 13.8 mph - N/A Fog Overcast
6:35 AM 60.8 °F 59.0 °F 94% 30.12 in 3.0 mi SE 4.6 mph - 0.01 in Fog , Rain Rain
6:45 AM 60.8 °F 59.0 °F 94% 30.12 in 3.0 mi SSE 4.6 mph - 0.03 in Rain Rain
6:53 AM 60.1 °F 59.0 °F 96% 29.95 in 3.0 mi SE 3.5 mph - 0.04 in Rain Light Rain
7:32 AM 60.8 °F 59.0 °F 94% 30.12 in 2.5 mi South 3.5 mph - 0.06 in Rain Rain
7:39 AM 60.8 °F 59.0 °F 94% 30.11 in 3.0 mi Calm Calm - 0.08 in Rain Light Rain
7:46 AM 60.8 °F 59.0 °F 94% 30.11 in 5.0 mi SW 4.6 mph - 0.09 in Rain Light Rain
7:53 AM 60.1 °F 59.0 °F 96% 29.94 in 8.0 mi SW 3.5 mph - 0.09 in Rain Light Rain
8:53 AM 60.1 °F 59.0 °F 96% 29.95 in 10.0 mi SW 5.8 mph - 0.05 in Rain Light Rain
9:53 AM 64.0 °F 59.0 °F 84% 29.91 in 10.0 mi South 10.4 mph - 0.00 in   Overcast
10:53 AM 64.0 °F 59.0 °F 84% 29.91 in 10.0 mi SW 11.5 mph - 0.00 in   Mostly Cloudy
11:53 AM 66.0 °F 59.0 °F 78% 29.88 in 10.0 mi SW 4.6 mph - 0.00 in   Mostly Cloudy
12:53 PM 71.1 °F 60.1 °F 68% 29.83 in 10.0 mi South 16.1 mph 23.0 mph N/A   Mostly Cloudy
1:53 PM 73.9 °F 57.9 °F 57% 29.80 in 10.0 mi South 16.1 mph 27.6 mph N/A   Mostly Cloudy
2:53 PM 75.0 °F 57.9 °F 55% 29.79 in 10.0 mi South 19.6 mph 29.9 mph N/A   Mostly Cloudy
3:53 PM 73.9 °F 57.9 °F 57% 29.76 in 10.0 mi South 19.6 mph 27.6 mph N/A   Mostly Cloudy
4:53 PM 72.0 °F 57.9 °F 61% 29.75 in 10.0 mi South 20.7 mph 28.8 mph N/A   Mostly Cloudy
5:53 PM 71.1 °F 57.9 °F 63% 29.76 in 10.0 mi South 12.7 mph 20.7 mph N/A   Mostly Cloudy
6:32 PM 68.0 °F 59.0 °F 73% 29.96 in 10.0 mi South 6.9 mph - N/A   Mostly Cloudy
6:53 PM 68.0 °F 59.0 °F 73% 29.77 in 10.0 mi SW 4.6 mph - N/A   Mostly Cloudy
7:53 PM 68.0 °F 60.1 °F 76% 29.79 in 10.0 mi West 3.5 mph - N/A   Mostly Cloudy
8:53 PM 66.0 °F 61.0 °F 84% 29.80 in 9.0 mi South 3.5 mph - N/A   Mostly Cloudy
9:53 PM 64.9 °F 59.0 °F 81% 29.80 in 9.0 mi SSW 6.9 mph - 0.01 in   Mostly Cloudy
10:53 PM 63.0 °F 57.9 °F 84% 29.81 in 10.0 mi South 8.1 mph - N/A   Mostly Cloudy
11:53 PM 61.0 °F 57.0 °F 87% 29.81 in 8.0 mi South 11.5 mph - N/A   Mostly Cloudy